This is the latest recevied weather packets stored in our database for station/object AK4NG. If no packets are shown the sender has not sent any weather packets the latest 10 day(s).
| Time | Temp. | Humidity | Pressure | Rain* | Wind** | Luminosity | Snow |
|---|---|---|---|---|---|---|---|
| 1777924182 | 26.11° C | 31% | 1016.3 hPa | 0 mm | - | 765 W/m² | - |
| 1777923879 | 26.67° C | 30% | 1016.4 hPa | 0 mm | - | 783 W/m² | - |
| 1777923575 | 26.11° C | 34% | 1016.4 hPa | 0 mm | - | 794 W/m² | - |
| 1777923272 | 26.11° C | 32% | 1016.5 hPa | 0 mm | - | 807 W/m² | - |
| 1777922971 | 26.11° C | 30% | 1016.3 hPa | 0 mm | - | 818 W/m² | - |
| 1777922667 | 26.11° C | 32% | 1016.5 hPa | 0 mm | - | 828 W/m² | - |
| 1777922366 | 26.11° C | 31% | 1016.6 hPa | 0 mm | - | 836 W/m² | - |
| 1777922064 | 26.67° C | 30% | 1016.7 hPa | 0 mm | - | 846 W/m² | - |
| 1777921759 | 26.67° C | 31% | 1016.6 hPa | 0 mm | - | 852 W/m² | - |
| 1777921455 | 26.11° C | 32% | 1016.7 hPa | 0 mm | - | 863 W/m² | - |
| 1777921152 | 26.11° C | 34% | 1017 hPa | 0 mm | - | 875 W/m² | - |
| 1777920849 | 25.56° C | 37% | 1016.9 hPa | 0 mm | - | 879 W/m² | - |
| 1777920545 | 25.56° C | 34% | 1016.9 hPa | 0 mm | - | 884 W/m² | - |
| 1777920241 | 25.56° C | 35% | 1016.9 hPa | 0 mm | - | 889 W/m² | - |
| 1777919937 | 25.56° C | 33% | 1017.2 hPa | 0 mm | - | 897 W/m² | - |
| 1777919634 | 25.56° C | 30% | 1017.4 hPa | 0 mm | - | 906 W/m² | - |
| 1777919332 | 25.56° C | 34% | 1017.1 hPa | 0 mm | - | 911 W/m² | - |
| 1777919029 | 25.56° C | 34% | 1017.1 hPa | 0 mm | - | 914 W/m² | - |
| 1777918725 | 25.56° C | 31% | 1017 hPa | 0 mm | - | 917 W/m² | - |
| 1777918423 | 25.56° C | 32% | 1017.3 hPa | 0 mm | - | 921 W/m² | - |
| 1777918122 | 25.56° C | 34% | 1017.3 hPa | 0 mm | - | 925 W/m² | - |
| 1777917820 | 25.56° C | 31% | 1017.5 hPa | 0 mm | - | 925 W/m² | - |
| 1777917518 | 25° C | 34% | 1017.3 hPa | 0 mm | - | 928 W/m² | - |
| 1777917214 | 25° C | 33% | 1017.3 hPa | 0 mm | - | 931 W/m² | - |
| 1777916913 | 24.44° C | 34% | 1017.5 hPa | 0 mm | - | 933 W/m² | - |
* Rain latest hour (hover to see other rain measurements)
** Current wind speed in m/s (hover to see current wind gust speed)